Content
SEND FEEDBACK

Daily
Averages
Monthly
Summary
United States of America

BROOKLINE, MASSACHUSETTS


Home > North America > United States > Massachusetts
Elevation: 118 feet     Latitude: 42 24N     Longitude: 071 06W

WEATHER
 
SELECT A DAY
Number of Records: 206,283;   Date Range: 1/1/95 - 11/25/14
 
SHARE

PRINT THIS DATA

[ ← Previous Day ]
WEATHER ALMANAC - JANUARY 17, 2013
[ Next Day → ]
[ °C ]   °F
Weather ElementAverageHighLow
Temperature35.5 °F42.1 °F (12:54 pm)30 °F (11:54 pm)
Dewpoint24.8 °F30.9 °F (1:54 am)10 °F (11:54 pm)
Humidity66.9 %92 % (1:54 am)43 % (11:54 pm)
Barometer29.98 in30.09 in (6:54 pm)29.85 in (4:54 am)
Wind Speed11.6 mph16.1 mph (2:54 pm)
Wind Gust23 mph (11:54 am)
Weather ElementAverage
Visibility10 mi
Wind DirectionWNW (285.2 °)

Weather ElementTotal
Precipitation---
Heating Degree Days29 (Base 65)
Averaged from 23 records on January 17, 2013
WEATHER CONDITIONS BREAKOUT
WIND DIRECTION BREAKOUT
WEATHER BY HOUR - JANUARY 17, 2013
[ °C ]   °F
Local TimeTemperatureDewpointHumidityBarometerVisibilityWind DirectionWind SpeedGust SpeedPrecipitationEventsConditions
1:54 AM33.1 °F30.9 °F92 %29.86 in10.0 miWSW (240°)10.4 mphMostly Cloudy
2:54 AM33.1 °F30.9 °F92 %29.86 in10.0 miSW (230°)11.5 mphPartly Cloudy
3:54 AM32.0 °F30.0 °F92 %29.86 in10.0 miWSW (240°)9.2 mphPartly Cloudy
4:54 AM32.0 °F30.0 °F92 %29.85 in10.0 miSW (230°)11.5 mphPartly Cloudy
5:54 AM32.0 °F30.0 °F92 %29.87 in10.0 miSW (230°)12.7 mphScattered Clouds
6:54 AM32.0 °F28.9 °F88 %29.89 in10.0 miSW (220°)11.5 mphScattered Clouds
7:54 AM34.0 °F28.9 °F82 %29.93 in10.0 miWest (270°)11.5 mphScattered Clouds
8:54 AM36.0 °F26.1 °F67 %29.95 in10.0 miWest (270°)12.7 mph19.6 mphScattered Clouds
9:54 AM36.0 °F27.0 °F70 %29.97 in10.0 miWest (260°)13.8 mphMostly Cloudy
10:54 AM37.9 °F28.0 °F68 %29.96 in10.0 miWSW (240°)12.7 mphMostly Cloudy
11:54 AM39.9 °F28.9 °F65 %29.96 in10.0 miWest (280°)15.0 mph23.0 mphMostly Cloudy
12:54 PM42.1 °F30.0 °F62 %29.97 in10.0 miWest (280°)15.0 mph20.7 mphMostly Cloudy
1:54 PM41.0 °F28.0 °F60 %29.98 in10.0 miWNW (290°)13.8 mph23.0 mphMostly Cloudy
2:54 PM42.1 °F25.0 °F51 %29.99 in10.0 miWest (280°)16.1 mph20.7 mphMostly Cloudy
3:54 PM41.0 °F24.1 °F51 %30.01 in10.0 miWNW (300°)9.2 mph18.4 mphMostly Cloudy
4:54 PM39.0 °F24.1 °F55 %30.04 in10.0 miNorth (350°)11.5 mphMostly Cloudy
5:54 PM37.0 °F24.1 °F59 %30.05 in10.0 miNNW (340°)8.1 mphMostly Cloudy
6:54 PM37.0 °F21.9 °F54 %30.09 in10.0 miNW (320°)11.5 mphMostly Cloudy
7:54 PM34.0 °F19.0 °F54 %30.09 in10.0 miNNW (340°)9.2 mphMostly Cloudy
8:54 PM33.1 °F17.1 °F52 %30.08 in10.0 miNNW (340°)10.4 mphOvercast
9:54 PM32.0 °F15.1 °F50 %30.08 in10.0 miNNW (330°)11.5 mphOvercast
10:54 PM30.9 °F12.9 °F47 %30.09 in10.0 miNNW (330°)8.1 mphOvercast
11:54 PM30.0 °F10.0 °F43 %30.07 in10.0 miNorth (350°)10.4 mphMostly Cloudy
Hourly data recorded from KBOS, located miles away from Brookline, Massachusetts







STORIES FROM OUR PARTNERS